Time,TemperatureF,DewpointF,PressureIn,WindDirection,WindDirectionDegrees,WindSpeedMPH,WindSpeedGustMPH,Humidity,HourlyPrecipIn,Conditions,Clouds,dailyrainin,SoftwareType,DateUTC
2013-03-04 00:00:00,34.3,23.4,29.32,NE,45,0.0,1.0,64,0.00,,,0.00,VWS V14.00,2013-03-04 05:00:00,
2013-03-04 00:05:00,34.3,23.8,29.32,SSW,202,0.0,1.0,65,0.00,,,0.00,VWS V14.00,2013-03-04 05:05:00,
2013-03-04 00:10:00,34.3,23.8,29.32,SSW,202,0.0,1.0,65,0.00,,,0.00,VWS V14.00,2013-03-04 05:10:00,
2013-03-04 00:15:00,34.3,23.8,29.32,SSW,202,0.0,1.0,65,0.00,,,0.00,VWS V14.00,2013-03-04 05:15:00,
2013-03-04 00:20:00,34.3,23.8,29.32,NE,45,0.0,6.5,65,0.00,,,0.00,VWS V14.00,2013-03-04 05:20:00,
2013-03-04 00:25:00,34.3,23.8,29.32,North,0,0.0,1.0,65,0.00,,,0.00,VWS V14.00,2013-03-04 05:25:00,
2013-03-04 00:30:00,34.3,24.2,29.32,SW,225,0.0,1.0,66,0.00,,,0.00,VWS V14.00,2013-03-04 05:30:00,
2013-03-04 00:35:00,34.3,24.2,29.32,WSW,248,0.0,1.0,66,0.00,,,0.00,VWS V14.00,2013-03-04 05:35:00,
2013-03-04 00:40:00,34.2,23.6,29.32,WNW,292,0.0,1.0,65,0.00,,,0.00,VWS V14.00,2013-03-04 05:40:00,
2013-03-04 00:45:00,34.2,23.6,29.32,ENE,68,0.0,1.0,65,0.00,,,0.00,VWS V14.00,2013-03-04 05:45:00,
2013-03-04 00:50:00,34.0,23.5,29.32,NNE,22,2.0,3.0,65,0.00,,,0.00,VWS V14.00,2013-03-04 05:50:00,
2013-03-04 00:55:00,33.8,23.3,29.32,SSE,158,0.0,1.0,65,0.00,,,0.00,VWS V14.00,2013-03-04 05:55:00,
2013-03-04 01:00:00,33.8,23.3,29.32,North,0,0.0,1.0,65,0.00,,,0.00,VWS V14.00,2013-03-04 06:00:00,
2013-03-04 01:05:00,33.6,23.1,29.32,North,0,0.0,1.0,65,0.00,,,0.00,VWS V14.00,2013-03-04 06:05:00,
2013-03-04 01:10:00,33.6,23.1,29.32,NNE,22,0.0,1.0,65,0.00,,,0.00,VWS V14.00,2013-03-04 06:10:00,
2013-03-04 01:15:00,33.6,23.1,29.32,NE,45,0.0,1.0,65,0.00,,,0.00,VWS V14.00,2013-03-04 06:15:00,
2013-03-04 01:20:00,33.6,23.1,29.32,South,180,0.0,1.0,65,0.00,,,0.00,VWS V14.00,2013-03-04 06:20:00,
2013-03-04 01:25:00,33.6,23.1,29.32,North,0,2.0,3.0,65,0.00,,,0.00,VWS V14.00,2013-03-04 06:25:00,
2013-03-04 01:30:00,33.6,22.8,29.32,East,90,3.9,4.9,64,0.00,,,0.00,VWS V14.00,2013-03-04 06:30:00,
2013-03-04 01:35:00,33.6,22.8,29.32,NNE,22,0.0,1.0,64,0.00,,,0.00,VWS V14.00,2013-03-04 06:35:00,
2013-03-04 01:40:00,33.6,22.8,29.32,ESE,112,0.0,5.7,64,0.00,,,0.00,VWS V14.00,2013-03-04 06:40:00,
2013-03-04 01:45:00,33.6,22.8,29.32,NW,315,3.5,4.5,64,0.00,,,0.00,VWS V14.00,2013-03-04 06:45:00,
2013-03-04 01:50:00,33.4,22.6,29.32,SSW,202,2.3,3.3,64,0.00,,,0.00,VWS V14.00,2013-03-04 06:50:00,
2013-03-04 01:55:00,33.4,22.6,29.32,WNW,292,2.3,3.3,64,0.00,,,0.00,VWS V14.00,2013-03-04 06:55:00,
2013-03-04 02:00:00,33.4,22.6,29.32,NE,45,0.0,1.0,64,0.00,,,0.00,VWS V14.00,2013-03-04 07:00:00,
2013-03-04 02:15:00,33.4,22.6,29.32,South,180,3.5,4.5,64,0.00,,,0.00,VWS V14.00,2013-03-04 07:15:00,
2013-03-04 02:20:00,33.3,22.4,29.32,South,180,2.0,3.0,64,0.00,,,0.00,VWS V14.00,2013-03-04 07:20:00,
2013-03-04 02:25:00,33.3,22.4,29.32,ENE,68,0.0,1.0,64,0.00,,,0.00,VWS V14.00,2013-03-04 07:25:00,
2013-03-04 02:30:00,33.3,22.4,29.32,WNW,292,0.0,1.0,64,0.00,,,0.00,VWS V14.00,2013-03-04 07:30:00,
2013-03-04 02:35:00,33.1,22.2,29.32,NE,45,0.0,3.3,64,0.00,,,0.00,VWS V14.00,2013-03-04 07:35:00,
2013-03-04 02:40:00,33.1,22.2,29.32,NNW,338,0.0,6.5,64,0.00,,,0.00,VWS V14.00,2013-03-04 07:40:00,
2013-03-04 02:46:00,32.9,22.1,29.32,NE,45,0.0,3.3,64,0.00,,,0.00,VWS V14.00,2013-03-04 07:46:00,
2013-03-04 02:51:00,32.7,21.9,29.32,NE,45,0.0,1.0,64,0.00,,,0.00,VWS V14.00,2013-03-04 07:51:00,
2013-03-04 02:56:00,32.7,21.9,29.32,NE,45,0.0,1.0,64,0.00,,,0.00,VWS V14.00,2013-03-04 07:56:00,
2013-03-04 03:01:00,32.5,21.7,29.32,SE,135,0.0,1.0,64,0.00,,,0.00,VWS V14.00,2013-03-04 08:01:00,
2013-03-04 03:06:00,32.5,21.7,29.32,South,180,0.0,1.0,64,0.00,,,0.00,VWS V14.00,2013-03-04 08:06:00,
2013-03-04 03:11:00,32.5,21.7,29.32,South,180,0.0,1.0,64,0.00,,,0.00,VWS V14.00,2013-03-04 08:11:00,
2013-03-04 03:16:00,32.4,21.6,29.32,ESE,112,0.0,1.0,64,0.00,,,0.00,VWS V14.00,2013-03-04 08:16:00,
2013-03-04 03:21:00,32.4,21.6,29.32,NW,315,1.6,2.6,64,0.00,,,0.00,VWS V14.00,2013-03-04 08:21:00,
2013-03-04 03:26:00,32.4,21.6,29.32,NE,45,2.0,3.0,64,0.00,,,0.00,VWS V14.00,2013-03-04 08:26:00,
2013-03-04 03:31:00,32.4,21.6,29.32,NNE,22,3.5,4.5,64,0.00,,,0.00,VWS V14.00,2013-03-04 08:31:00,
2013-03-04 03:36:00,32.4,21.6,29.32,ESE,112,0.0,1.0,64,0.00,,,0.00,VWS V14.00,2013-03-04 08:36:00,
2013-03-04 03:41:00,32.4,21.6,29.32,SE,135,0.0,1.0,64,0.00,,,0.00,VWS V14.00,2013-03-04 08:41:00,
2013-03-04 03:46:00,32.4,21.6,29.32,SSE,158,0.0,3.0,64,0.00,,,0.00,VWS V14.00,2013-03-04 08:46:00,
2013-03-04 03:50:00,32.2,21.4,29.32,WNW,292,0.0,3.3,64,0.00,,,0.00,VWS V14.00,2013-03-04 08:50:00,
2013-03-04 03:56:00,32.2,21.4,29.32,WSW,248,0.0,1.0,64,0.00,,,0.00,VWS V14.00,2013-03-04 08:56:00,
2013-03-04 05:37:00,30.9,20.2,29.32,West,270,2.3,3.3,64,0.00,,,0.00,VWS V14.00,2013-03-04 10:37:00,
2013-03-04 05:42:00,30.9,20.2,29.32,SW,225,0.0,1.0,64,0.00,,,0.00,VWS V14.00,2013-03-04 10:42:00,
2013-03-04 05:47:00,30.9,20.2,29.32,South,180,1.6,3.0,64,0.00,,,0.00,VWS V14.00,2013-03-04 10:47:00,
2013-03-04 05:52:00,30.9,20.2,29.32,SSW,202,3.9,4.9,64,0.00,,,0.00,VWS V14.00,2013-03-04 10:52:00,
2013-03-04 05:57:00,30.9,19.8,29.32,SSW,202,0.0,1.0,63,0.00,,,0.00,VWS V14.00,2013-03-04 10:57:00,
2013-03-04 06:02:00,30.7,19.6,29.32,NE,45,0.0,1.0,63,0.00,,,0.00,VWS V14.00,2013-03-04 11:02:00,
2013-03-04 06:07:00,30.7,19.6,29.32,SE,135,0.0,1.0,63,0.00,,,0.00,VWS V14.00,2013-03-04 11:07:00,
2013-03-04 06:12:00,30.7,19.6,29.32,ENE,68,1.6,2.6,63,0.00,,,0.00,VWS V14.00,2013-03-04 11:12:00,
2013-03-04 06:17:00,30.7,19.6,29.32,NNW,338,0.0,1.0,63,0.00,,,0.00,VWS V14.00,2013-03-04 11:17:00,
2013-03-04 06:22:00,30.6,19.5,29.32,South,180,0.0,3.7,63,0.00,,,0.00,VWS V14.00,2013-03-04 11:22:00,
2013-03-04 06:27:00,30.6,19.5,29.32,South,180,0.0,1.0,63,0.00,,,0.00,VWS V14.00,2013-03-04 11:27:00,
2013-03-04 06:32:00,30.6,19.1,29.35,SE,135,5.1,6.1,62,0.00,,,0.00,VWS V14.00,2013-03-04 11:32:00,
2013-03-04 06:37:00,30.6,19.1,29.35,SSE,158,2.7,3.7,62,0.00,,,0.00,VWS V14.00,2013-03-04 11:37:00,
2013-03-04 06:42:00,30.6,19.1,29.35,NW,315,1.6,2.6,62,0.00,,,0.00,VWS V14.00,2013-03-04 11:42:00,
2013-03-04 06:47:00,30.6,19.1,29.35,ESE,112,0.0,1.0,62,0.00,,,0.00,VWS V14.00,2013-03-04 11:47:00,
2013-03-04 06:52:00,30.7,19.3,29.35,NW,315,4.3,5.3,62,0.00,,,0.00,VWS V14.00,2013-03-04 11:52:00,
2013-03-04 06:57:00,30.7,19.3,29.35,North,0,0.0,1.0,62,0.00,,,0.00,VWS V14.00,2013-03-04 11:57:00,
2013-03-04 07:02:00,30.9,19.1,29.35,SSE,158,2.0,3.0,61,0.00,,,0.00,VWS V14.00,2013-03-04 12:02:00,
2013-03-04 07:07:00,30.9,19.1,29.35,West,270,0.0,1.0,61,0.00,,,0.00,VWS V14.00,2013-03-04 12:07:00,
2013-03-04 07:12:00,30.9,19.1,29.35,South,180,0.0,1.0,61,0.00,,,0.00,VWS V14.00,2013-03-04 12:12:00,
2013-03-04 07:17:00,30.9,19.1,29.35,NNW,338,0.0,1.0,61,0.00,,,0.00,VWS V14.00,2013-03-04 12:17:00,
2013-03-04 07:22:00,30.9,19.1,29.35,NE,45,0.0,1.0,61,0.00,,,0.00,VWS V14.00,2013-03-04 12:22:00,
2013-03-04 07:27:00,30.9,19.1,29.35,SSW,202,0.0,1.0,61,0.00,,,0.00,VWS V14.00,2013-03-04 12:27:00,
2013-03-04 07:32:00,31.1,18.9,29.35,ESE,112,0.0,1.0,60,0.00,,,0.00,VWS V14.00,2013-03-04 12:32:00,
2013-03-04 07:37:00,31.1,18.9,29.35,SSE,158,0.0,1.0,60,0.00,,,0.00,VWS V14.00,2013-03-04 12:37:00,
2013-03-04 07:42:00,31.1,18.9,29.35,ENE,68,0.0,1.0,60,0.00,,,0.00,VWS V14.00,2013-03-04 12:42:00,
2013-03-04 07:47:00,31.3,19.0,29.35,NNW,338,2.7,3.7,60,0.00,,,0.00,VWS V14.00,2013-03-04 12:47:00,
2013-03-04 07:52:00,31.3,18.6,29.35,SE,135,0.0,1.0,59,0.00,,,0.00,VWS V14.00,2013-03-04 12:52:00,
2013-03-04 07:57:00,31.5,18.8,29.35,NNE,22,2.0,7.7,59,0.00,,,0.00,VWS V14.00,2013-03-04 12:57:00,
2013-03-04 08:02:00,31.5,18.8,29.35,NE,45,0.0,1.0,59,0.00,,,0.00,VWS V14.00,2013-03-04 13:02:00,
2013-03-04 08:07:00,31.6,19.0,29.35,SSW,202,0.0,1.0,59,0.00,,,0.00,VWS V14.00,2013-03-04 13:07:00,
2013-03-04 08:12:00,31.8,19.1,29.35,SSW,202,2.0,3.0,59,0.00,,,0.00,VWS V14.00,2013-03-04 13:12:00,
2013-03-04 08:17:00,31.8,18.7,29.35,South,180,0.0,1.0,58,0.00,,,0.00,VWS V14.00,2013-03-04 13:17:00,
2013-03-04 08:22:00,32.2,19.1,29.35,South,180,1.6,2.6,58,0.00,,,0.00,VWS V14.00,2013-03-04 13:22:00,
2013-03-04 08:27:00,32.2,19.1,29.35,NNW,338,0.0,1.0,58,0.00,,,0.00,VWS V14.00,2013-03-04 13:27:00,
2013-03-04 08:32:00,32.2,19.1,29.35,WNW,292,0.0,1.0,58,0.00,,,0.00,VWS V14.00,2013-03-04 13:32:00,
2013-03-04 08:37:00,32.4,19.2,29.35,SSW,202,5.9,6.9,58,0.00,,,0.00,VWS V14.00,2013-03-04 13:37:00,
2013-03-04 08:42:00,32.4,19.2,29.35,NNW,338,0.0,3.3,58,0.00,,,0.00,VWS V14.00,2013-03-04 13:42:00,
2013-03-04 08:47:00,32.5,19.4,29.35,WSW,248,0.0,6.5,58,0.00,,,0.00,VWS V14.00,2013-03-04 13:47:00,
2013-03-04 08:52:00,32.9,19.4,29.35,South,180,4.7,5.7,57,0.00,,,0.00,VWS V14.00,2013-03-04 13:52:00,
2013-03-04 08:57:00,33.3,19.7,29.35,WNW,292,0.0,1.0,57,0.00,,,0.00,VWS V14.00,2013-03-04 13:57:00,
2013-03-04 09:02:00,33.4,19.4,29.35,SSW,202,0.0,1.0,56,0.00,,,0.00,VWS V14.00,2013-03-04 14:02:00,
2013-03-04 09:07:00,34.0,20.4,29.35,WSW,248,0.0,1.0,57,0.00,,,0.00,VWS V14.00,2013-03-04 14:07:00,
2013-03-04 09:12:00,34.3,20.3,29.35,SW,225,1.6,2.6,56,0.00,,,0.00,VWS V14.00,2013-03-04 14:12:00,
2013-03-04 09:17:00,34.3,20.3,29.35,NE,45,3.5,4.5,56,0.00,,,0.00,VWS V14.00,2013-03-04 14:17:00,
2013-03-04 09:22:00,34.3,20.3,29.35,NNE,22,4.7,5.7,56,0.00,,,0.00,VWS V14.00,2013-03-04 14:22:00,
2013-03-04 09:27:00,35.1,21.0,29.35,SSW,202,0.0,1.0,56,0.00,,,0.00,VWS V14.00,2013-03-04 14:27:00,
2013-03-04 09:32:00,35.6,21.0,29.35,North,0,3.9,5.7,55,0.00,,,0.00,VWS V14.00,2013-03-04 14:32:00,
2013-03-04 09:37:00,35.8,20.8,29.35,SSE,158,2.0,4.9,54,0.00,,,0.00,VWS V14.00,2013-03-04 14:37:00,
2013-03-04 09:42:00,35.8,20.8,29.35,East,90,7.4,8.4,54,0.00,,,0.00,VWS V14.00,2013-03-04 14:42:00,
2013-03-04 09:47:00,35.6,20.6,29.35,WNW,292,2.0,3.7,54,0.00,,,0.00,VWS V14.00,2013-03-04 14:47:00,
2013-03-04 09:52:00,36.0,21.0,29.35,NNW,338,0.0,3.0,54,0.00,,,0.00,VWS V14.00,2013-03-04 14:52:00,
2013-03-04 09:57:00,36.0,21.0,29.35,NNW,338,0.0,4.5,54,0.00,,,0.00,VWS V14.00,2013-03-04 14:57:00,
2013-03-04 10:02:00,36.1,21.1,29.35,NNE,22,0.0,7.7,54,0.00,,,0.00,VWS V14.00,2013-03-04 15:02:00,
2013-03-04 10:07:00,36.1,21.1,29.35,NNE,22,0.0,7.3,54,0.00,,,0.00,VWS V14.00,2013-03-04 15:07:00,
2013-03-04 10:12:00,36.5,21.0,29.35,East,90,6.7,7.7,53,0.00,,,0.00,VWS V14.00,2013-03-04 15:12:00,
2013-03-04 10:17:00,36.7,21.2,29.35,NNW,338,0.0,3.3,53,0.00,,,0.00,VWS V14.00,2013-03-04 15:17:00,
2013-03-04 10:22:00,36.9,21.3,29.35,SW,225,2.3,3.3,53,0.00,,,0.00,VWS V14.00,2013-03-04 15:22:00,
2013-03-04 10:27:00,37.4,21.9,29.35,ENE,68,2.0,3.0,53,0.00,,,0.00,VWS V14.00,2013-03-04 15:27:00,
2013-03-04 10:32:00,37.9,21.9,29.35,WSW,248,2.3,3.3,52,0.00,,,0.00,VWS V14.00,2013-03-04 15:32:00,
2013-03-04 10:37:00,37.6,21.6,29.35,WNW,292,13.7,14.7,52,0.00,,,0.00,VWS V14.00,2013-03-04 15:37:00,
2013-03-04 10:42:00,37.9,21.9,29.35,North,0,4.7,5.7,52,0.00,,,0.00,VWS V14.00,2013-03-04 15:42:00,
2013-03-04 10:47:00,37.8,21.7,29.32,NNE,22,5.1,6.1,52,0.00,,,0.00,VWS V14.00,2013-03-04 15:47:00,
2013-03-04 10:52:00,37.9,21.4,29.32,SW,225,4.7,6.1,51,0.00,,,0.00,VWS V14.00,2013-03-04 15:52:00,
2013-03-04 10:57:00,37.8,21.3,29.32,SE,135,3.5,6.1,51,0.00,,,0.00,VWS V14.00,2013-03-04 15:57:00,
2013-03-04 11:02:00,37.9,21.9,29.32,North,0,0.0,1.0,52,0.00,,,0.00,VWS V14.00,2013-03-04 16:02:00,
2013-03-04 11:07:00,38.5,21.9,29.32,NE,45,2.7,5.7,51,0.00,,,0.00,VWS V14.00,2013-03-04 16:07:00,
2013-03-04 11:12:00,38.5,21.9,29.32,North,0,5.1,6.1,51,0.00,,,0.00,VWS V14.00,2013-03-04 16:12:00,
2013-03-04 11:17:00,38.1,21.6,29.32,East,90,5.5,6.5,51,0.00,,,0.00,VWS V14.00,2013-03-04 16:17:00,
2013-03-04 11:22:00,38.1,21.6,29.32,SW,225,2.0,3.0,51,0.00,,,0.00,VWS V14.00,2013-03-04 16:22:00,
2013-03-04 11:27:00,38.3,21.8,29.32,North,0,2.7,3.7,51,0.00,,,0.00,VWS V14.00,2013-03-04 16:27:00,
2013-03-04 11:32:00,38.3,21.3,29.32,NE,45,2.3,5.3,50,0.00,,,0.00,VWS V14.00,2013-03-04 16:32:00,
2013-03-04 11:37:00,38.5,21.9,29.32,NNE,22,0.0,1.0,51,0.00,,,0.00,VWS V14.00,2013-03-04 16:37:00,
2013-03-04 11:42:00,38.5,21.9,29.32,WNW,292,3.5,4.5,51,0.00,,,0.00,VWS V14.00,2013-03-04 16:42:00,
2013-03-04 11:47:00,38.3,21.8,29.32,North,0,1.6,2.6,51,0.00,,,0.00,VWS V14.00,2013-03-04 16:47:00,
2013-03-04 11:52:00,38.1,21.1,29.32,NNW,338,0.0,2.6,50,0.00,,,0.00,VWS V14.00,2013-03-04 16:52:00,
2013-03-04 11:57:00,38.5,21.5,29.32,NE,45,6.7,7.7,50,0.00,,,0.00,VWS V14.00,2013-03-04 16:57:00,
2013-03-04 12:02:00,38.7,22.1,29.32,NNE,22,6.3,7.3,51,0.00,,,0.00,VWS V14.00,2013-03-04 17:02:00,
2013-03-04 12:07:00,38.8,22.3,29.32,East,90,2.7,3.7,51,0.00,,,0.00,VWS V14.00,2013-03-04 17:07:00,
2013-03-04 12:12:00,38.7,22.1,29.32,NE,45,1.6,4.9,51,0.00,,,0.00,VWS V14.00,2013-03-04 17:12:00,
2013-03-04 12:17:00,39.0,22.4,29.32,West,270,0.0,1.0,51,0.00,,,0.00,VWS V14.00,2013-03-04 17:17:00,
2013-03-04 12:22:00,39.2,22.1,29.32,ENE,68,0.0,1.0,50,0.00,,,0.00,VWS V14.00,2013-03-04 17:22:00,
2013-03-04 12:27:00,39.2,22.1,29.32,SSW,202,0.0,6.1,50,0.00,,,0.00,VWS V14.00,2013-03-04 17:27:00,
2013-03-04 12:32:00,39.6,22.5,29.32,East,90,5.9,6.9,50,0.00,,,0.00,VWS V14.00,2013-03-04 17:32:00,
2013-03-04 12:37:00,39.7,22.6,29.32,North,0,4.3,5.7,50,0.00,,,0.00,VWS V14.00,2013-03-04 17:37:00,
2013-03-04 12:42:00,39.6,22.5,29.32,SSW,202,2.0,3.0,50,0.00,,,0.00,VWS V14.00,2013-03-04 17:42:00,
2013-03-04 12:47:00,39.4,21.8,29.32,SW,225,1.6,6.5,49,0.00,,,0.00,VWS V14.00,2013-03-04 17:47:00,
2013-03-04 12:52:00,39.4,21.8,29.32,South,180,0.0,3.7,49,0.00,,,0.00,VWS V14.00,2013-03-04 17:52:00,
2013-03-04 12:57:00,39.4,22.3,29.32,NNE,22,1.6,2.6,50,0.00,,,0.00,VWS V14.00,2013-03-04 17:57:00,
2013-03-04 13:02:00,39.4,22.3,29.32,North,0,4.3,5.7,50,0.00,,,0.00,VWS V14.00,2013-03-04 18:02:00,
2013-03-04 13:07:00,39.0,21.5,29.32,South,180,3.5,4.5,49,0.00,,,0.00,VWS V14.00,2013-03-04 18:07:00,
2013-03-04 13:12:00,38.8,21.8,29.32,NNW,338,5.1,6.1,50,0.00,,,0.00,VWS V14.00,2013-03-04 18:12:00,
2013-03-04 13:17:00,38.8,21.8,29.32,NNE,22,6.3,7.3,50,0.00,,,0.00,VWS V14.00,2013-03-04 18:17:00,
2013-03-04 13:22:00,38.7,21.6,29.32,North,0,2.0,3.0,50,0.00,,,0.00,VWS V14.00,2013-03-04 18:22:00,
2013-03-04 13:27:00,38.8,21.8,29.32,SW,225,0.0,5.3,50,0.00,,,0.00,VWS V14.00,2013-03-04 18:27:00,
2013-03-04 13:29:00,39.0,22.0,29.32,North,0,5.9,6.9,50,0.00,,,0.00,VWS V14.00,2013-03-04 18:29:00,
2013-03-04 13:30:00,39.2,22.1,29.32,North,0,5.9,6.9,50,0.00,,,0.00,VWS V14.00,2013-03-04 18:30:00,
2013-03-04 13:35:00,39.2,21.7,29.32,East,90,1.6,3.3,49,0.00,,,0.00,VWS V14.00,2013-03-04 18:35:00,
2013-03-04 13:40:00,38.8,21.8,29.32,North,0,9.8,10.8,50,0.00,,,0.00,VWS V14.00,2013-03-04 18:40:00,
2013-03-04 13:45:00,38.8,21.8,29.32,North,0,5.1,6.1,50,0.00,,,0.00,VWS V14.00,2013-03-04 18:45:00,
2013-03-04 13:50:00,39.2,21.7,29.32,South,180,5.1,6.1,49,0.00,,,0.00,VWS V14.00,2013-03-04 18:50:00,
2013-03-04 13:55:00,38.8,21.8,29.32,NE,45,0.0,1.0,50,0.00,,,0.00,VWS V14.00,2013-03-04 18:55:00,
2013-03-04 14:00:00,38.8,21.8,29.32,NNE,22,0.0,1.0,50,0.00,,,0.00,VWS V14.00,2013-03-04 19:00:00,
2013-03-04 14:05:00,38.8,21.8,29.32,SSE,158,2.0,3.0,50,0.00,,,0.00,VWS V14.00,2013-03-04 19:05:00,
2013-03-04 14:10:00,39.2,21.7,29.32,SSE,158,2.7,3.7,49,0.00,,,0.00,VWS V14.00,2013-03-04 19:10:00,
2013-03-04 14:15:00,39.2,21.7,29.32,NW,315,5.9,6.9,49,0.00,,,0.00,VWS V14.00,2013-03-04 19:15:00,
2013-03-04 14:20:00,39.2,22.1,29.32,South,180,0.0,1.0,50,0.00,,,0.00,VWS V14.00,2013-03-04 19:20:00,
2013-03-04 14:25:00,39.4,22.3,29.32,North,0,3.9,4.9,50,0.00,,,0.00,VWS V14.00,2013-03-04 19:25:00,
2013-03-04 14:30:00,39.2,22.1,29.32,SSW,202,2.3,3.3,50,0.00,,,0.00,VWS V14.00,2013-03-04 19:30:00,
2013-03-04 14:35:00,39.2,22.1,29.32,ENE,68,5.9,6.9,50,0.00,,,0.00,VWS V14.00,2013-03-04 19:35:00,
2013-03-04 14:40:00,39.2,22.1,29.32,SE,135,3.5,4.5,50,0.00,,,0.00,VWS V14.00,2013-03-04 19:40:00,
2013-03-04 14:45:00,39.0,22.0,29.32,West,270,3.9,4.9,50,0.00,,,0.00,VWS V14.00,2013-03-04 19:45:00,
2013-03-04 14:50:00,38.8,21.8,29.32,East,90,2.3,4.5,50,0.00,,,0.00,VWS V14.00,2013-03-04 19:50:00,
2013-03-04 14:55:00,38.7,21.6,29.32,East,90,4.3,5.3,50,0.00,,,0.00,VWS V14.00,2013-03-04 19:55:00,
2013-03-04 15:00:00,38.7,22.1,29.32,NNW,338,2.3,9.6,51,0.00,,,0.00,VWS V14.00,2013-03-04 20:00:00,
2013-03-04 15:05:00,38.7,22.1,29.32,WSW,248,2.7,3.7,51,0.00,,,0.00,VWS V14.00,2013-03-04 20:05:00,
2013-03-04 15:10:00,38.7,22.1,29.32,NNE,22,3.5,8.0,51,0.00,,,0.00,VWS V14.00,2013-03-04 20:10:00,
2013-03-04 15:15:00,38.7,22.1,29.32,NW,315,5.5,6.5,51,0.00,,,0.00,VWS V14.00,2013-03-04 20:15:00,
2013-03-04 15:20:00,38.7,22.1,29.32,NE,45,0.0,1.0,51,0.00,,,0.00,VWS V14.00,2013-03-04 20:20:00,
2013-03-04 15:25:00,38.8,22.7,29.32,West,270,0.0,1.0,52,0.00,,,0.00,VWS V14.00,2013-03-04 20:25:00,
2013-03-04 15:30:00,38.8,22.7,29.32,North,0,0.0,1.0,52,0.00,,,0.00,VWS V14.00,2013-03-04 20:30:00,
2013-03-04 15:35:00,38.7,22.6,29.32,NE,45,0.0,1.0,52,0.00,,,0.00,VWS V14.00,2013-03-04 20:35:00,
2013-03-04 15:40:00,38.5,22.4,29.32,ESE,112,0.0,3.7,52,0.00,,,0.00,VWS V14.00,2013-03-04 20:40:00,
2013-03-04 15:45:00,38.1,22.5,29.32,South,180,0.0,1.0,53,0.00,,,0.00,VWS V14.00,2013-03-04 20:45:00,
2013-03-04 15:50:00,38.1,22.5,29.32,NE,45,2.3,3.3,53,0.00,,,0.00,VWS V14.00,2013-03-04 20:50:00,
2013-03-04 15:55:00,38.1,22.5,29.32,WSW,248,0.0,3.3,53,0.00,,,0.00,VWS V14.00,2013-03-04 20:55:00,
2013-03-04 16:00:00,38.1,22.1,29.32,SSW,202,2.7,7.3,52,0.00,,,0.00,VWS V14.00,2013-03-04 21:00:00,
2013-03-04 16:05:00,37.9,21.9,29.32,ENE,68,0.0,1.0,52,0.00,,,0.00,VWS V14.00,2013-03-04 21:05:00,
2013-03-04 16:10:00,37.9,21.9,29.32,NE,45,4.7,5.7,52,0.00,,,0.00,VWS V14.00,2013-03-04 21:10:00,
2013-03-04 16:15:00,37.8,21.7,29.32,ENE,68,1.6,6.1,52,0.00,,,0.00,VWS V14.00,2013-03-04 21:15:00,
2013-03-04 16:20:00,37.6,21.6,29.32,WSW,248,0.0,3.3,52,0.00,,,0.00,VWS V14.00,2013-03-04 21:20:00,
2013-03-04 16:25:00,37.6,21.6,29.32,North,0,4.3,5.3,52,0.00,,,0.00,VWS V14.00,2013-03-04 21:25:00,
2013-03-04 16:30:00,37.4,21.4,29.32,South,180,1.6,3.7,52,0.00,,,0.00,VWS V14.00,2013-03-04 21:30:00,
2013-03-04 16:35:00,37.4,21.9,29.32,NE,45,6.7,7.7,53,0.00,,,0.00,VWS V14.00,2013-03-04 21:35:00,
2013-03-04 16:40:00,37.0,22.0,29.32,East,90,0.0,1.0,54,0.00,,,0.00,VWS V14.00,2013-03-04 21:40:00,
2013-03-04 16:45:00,36.9,22.2,29.32,East,90,1.6,2.6,55,0.00,,,0.00,VWS V14.00,2013-03-04 21:45:00,
2013-03-04 16:50:00,36.7,22.0,29.32,ENE,68,2.3,3.3,55,0.00,,,0.00,VWS V14.00,2013-03-04 21:50:00,
2013-03-04 16:55:00,36.3,22.1,29.32,WNW,292,0.0,1.0,56,0.00,,,0.00,VWS V14.00,2013-03-04 21:55:00,
2013-03-04 17:00:00,36.3,22.1,29.32,NNW,338,3.9,4.9,56,0.00,,,0.00,VWS V14.00,2013-03-04 22:00:00,
2013-03-04 17:05:00,36.3,22.1,29.32,WNW,292,5.5,6.5,56,0.00,,,0.00,VWS V14.00,2013-03-04 22:05:00,
2013-03-04 17:10:00,36.1,22.0,29.32,WSW,248,0.0,1.0,56,0.00,,,0.00,VWS V14.00,2013-03-04 22:10:00,
2013-03-04 17:15:00,36.1,22.0,29.32,SW,225,0.0,1.0,56,0.00,,,0.00,VWS V14.00,2013-03-04 22:15:00,
2013-03-04 17:20:00,36.1,22.0,29.35,WNW,292,0.0,1.0,56,0.00,,,0.00,VWS V14.00,2013-03-04 22:20:00,
2013-03-04 17:25:00,36.1,22.0,29.35,SSE,158,0.0,1.0,56,0.00,,,0.00,VWS V14.00,2013-03-04 22:25:00,
2013-03-04 17:30:00,36.1,22.0,29.35,SSW,202,0.0,1.0,56,0.00,,,0.00,VWS V14.00,2013-03-04 22:30:00,
2013-03-04 17:35:00,36.0,21.8,29.35,NE,45,0.0,1.0,56,0.00,,,0.00,VWS V14.00,2013-03-04 22:35:00,
2013-03-04 17:40:00,36.0,21.8,29.35,NNE,22,0.0,1.0,56,0.00,,,0.00,VWS V14.00,2013-03-04 22:40:00,
2013-03-04 17:45:00,35.8,21.6,29.35,NNW,338,0.0,1.0,56,0.00,,,0.00,VWS V14.00,2013-03-04 22:45:00,
2013-03-04 17:50:00,35.8,21.6,29.35,East,90,0.0,1.0,56,0.00,,,0.00,VWS V14.00,2013-03-04 22:50:00,
2013-03-04 17:55:00,35.6,21.5,29.35,NNW,338,3.5,4.5,56,0.00,,,0.00,VWS V14.00,2013-03-04 22:55:00,
2013-03-04 18:00:00,35.4,21.7,29.35,NW,315,4.7,5.7,57,0.00,,,0.00,VWS V14.00,2013-03-04 23:00:00,
2013-03-04 18:05:00,35.4,21.7,29.38,ENE,68,12.5,13.5,57,0.00,,,0.00,VWS V14.00,2013-03-04 23:05:00,
2013-03-04 18:10:00,35.1,21.8,29.38,SSW,202,0.0,6.1,58,0.00,,,0.00,VWS V14.00,2013-03-04 23:10:00,
2013-03-04 18:15:00,35.1,22.2,29.38,SW,225,0.0,1.0,59,0.00,,,0.00,VWS V14.00,2013-03-04 23:15:00,
2013-03-04 18:20:00,34.9,22.4,29.38,SSE,158,0.0,1.0,60,0.00,,,0.00,VWS V14.00,2013-03-04 23:20:00,
2013-03-04 18:25:00,34.7,22.6,29.38,North,0,0.0,1.0,61,0.00,,,0.00,VWS V14.00,2013-03-04 23:25:00,
2013-03-04 18:30:00,34.3,22.7,29.38,SSW,202,0.0,1.0,62,0.00,,,0.00,VWS V14.00,2013-03-04 23:30:00,
2013-03-04 18:35:00,34.2,22.9,29.38,ESE,112,0.0,1.0,63,0.00,,,0.00,VWS V14.00,2013-03-04 23:35:00,
2013-03-04 18:40:00,34.0,23.1,29.38,NE,45,0.0,2.6,64,0.00,,,0.00,VWS V14.00,2013-03-04 23:40:00,
2013-03-04 18:45:00,33.8,23.3,29.38,NNE,22,0.0,1.0,65,0.00,,,0.00,VWS V14.00,2013-03-04 23:45:00,
2013-03-04 18:50:00,33.8,23.7,29.38,ENE,68,0.0,1.0,66,0.00,,,0.00,VWS V14.00,2013-03-04 23:50:00,
2013-03-04 18:55:00,33.6,23.9,29.38,NNW,338,0.0,1.0,67,0.00,,,0.00,VWS V14.00,2013-03-04 23:55:00,
2013-03-04 19:00:00,33.6,23.9,29.38,South,180,0.0,1.0,67,0.00,,,0.00,VWS V14.00,2013-03-05 00:00:00,
2013-03-04 19:05:00,33.6,24.2,29.41,South,180,0.0,1.0,68,0.00,,,0.00,VWS V14.00,2013-03-05 00:05:00,
2013-03-04 19:10:00,33.4,24.4,29.41,WSW,248,0.0,1.0,69,0.00,,,0.00,VWS V14.00,2013-03-05 00:10:00,
2013-03-04 19:15:00,33.4,24.4,29.41,SSE,158,0.0,3.3,69,0.00,,,0.00,VWS V14.00,2013-03-05 00:15:00,
2013-03-04 19:20:00,33.4,24.4,29.41,NNW,338,0.0,1.0,69,0.00,,,0.00,VWS V14.00,2013-03-05 00:20:00,
2013-03-04 19:25:00,33.4,24.4,29.41,SE,135,0.0,1.0,69,0.00,,,0.00,VWS V14.00,2013-03-05 00:25:00,
2013-03-04 19:30:00,33.4,24.4,29.41,North,0,0.0,1.0,69,0.00,,,0.00,VWS V14.00,2013-03-05 00:30:00,
2013-03-04 19:35:00,33.4,24.0,29.41,SW,225,0.0,1.0,68,0.00,,,0.00,VWS V14.00,2013-03-05 00:35:00,
2013-03-04 19:40:00,33.4,24.0,29.41,West,270,0.0,1.0,68,0.00,,,0.00,VWS V14.00,2013-03-05 00:40:00,
2013-03-04 19:45:00,33.3,23.9,29.41,NW,315,4.7,5.7,68,0.00,,,0.00,VWS V14.00,2013-03-05 00:45:00,
2013-03-04 19:50:00,33.3,23.5,29.41,SSE,158,0.0,1.0,67,0.00,,,0.00,VWS V14.00,2013-03-05 00:50:00,
2013-03-04 19:55:00,33.3,23.5,29.41,NNW,338,0.0,1.0,67,0.00,,,0.00,VWS V14.00,2013-03-05 00:55:00,
2013-03-04 20:00:00,33.3,23.5,29.41,North,0,0.0,1.0,67,0.00,,,0.00,VWS V14.00,2013-03-05 01:00:00,
2013-03-04 20:05:00,33.3,23.5,29.41,WSW,248,0.0,1.0,67,0.00,,,0.00,VWS V14.00,2013-03-05 01:05:00,
2013-03-04 20:10:00,33.3,23.5,29.41,SW,225,0.0,1.0,67,0.00,,,0.00,VWS V14.00,2013-03-05 01:10:00,
2013-03-04 20:15:00,33.3,23.1,29.41,South,180,0.0,1.0,66,0.00,,,0.00,VWS V14.00,2013-03-05 01:15:00,
2013-03-04 20:20:00,33.3,23.1,29.41,NE,45,0.0,1.0,66,0.00,,,0.00,VWS V14.00,2013-03-05 01:20:00,
2013-03-04 20:25:00,33.3,22.8,29.41,NNE,22,2.3,3.3,65,0.00,,,0.00,VWS V14.00,2013-03-05 01:25:00,
2013-03-04 20:30:00,33.3,22.8,29.41,SSW,202,1.6,2.6,65,0.00,,,0.00,VWS V14.00,2013-03-05 01:30:00,
2013-03-04 20:35:00,33.3,22.4,29.41,NE,45,5.5,6.5,64,0.00,,,0.00,VWS V14.00,2013-03-05 01:35:00,
2013-03-04 20:40:00,33.3,22.4,29.41,North,0,0.0,9.2,64,0.00,,,0.00,VWS V14.00,2013-03-05 01:40:00,
2013-03-04 20:45:00,33.3,22.0,29.41,NNW,338,0.0,1.0,63,0.00,,,0.00,VWS V14.00,2013-03-05 01:45:00,
2013-03-04 20:50:00,33.4,22.2,29.41,WSW,248,0.0,1.0,63,0.00,,,0.00,VWS V14.00,2013-03-05 01:50:00,
2013-03-04 20:55:00,33.3,22.0,29.41,NW,315,0.0,4.9,63,0.00,,,0.00,VWS V14.00,2013-03-05 01:55:00,
2013-03-04 21:00:00,33.3,21.7,29.41,SE,135,0.0,1.0,62,0.00,,,0.00,VWS V14.00,2013-03-05 02:00:00,
2013-03-04 21:05:00,33.3,21.7,29.41,NNE,22,0.0,1.0,62,0.00,,,0.00,VWS V14.00,2013-03-05 02:05:00,
2013-03-04 21:10:00,33.3,21.7,29.41,North,0,0.0,1.0,62,0.00,,,0.00,VWS V14.00,2013-03-05 02:10:00,
2013-03-04 21:15:00,33.3,21.3,29.41,WNW,292,3.5,4.5,61,0.00,,,0.00,VWS V14.00,2013-03-05 02:15:00,
2013-03-04 21:20:00,33.4,21.5,29.44,NNE,22,0.0,1.0,61,0.00,,,0.00,VWS V14.00,2013-03-05 02:20:00,
2013-03-04 21:25:00,33.3,20.9,29.44,NNE,22,2.7,5.7,60,0.00,,,0.00,VWS V14.00,2013-03-05 02:25:00,
2013-03-04 21:30:00,33.3,20.9,29.44,WNW,292,0.0,1.0,60,0.00,,,0.00,VWS V14.00,2013-03-05 02:30:00,
2013-03-04 21:35:00,33.3,20.9,29.44,NNE,22,5.1,6.1,60,0.00,,,0.00,VWS V14.00,2013-03-05 02:35:00,
2013-03-04 21:40:00,33.3,20.9,29.44,South,180,10.6,11.6,60,0.00,,,0.00,VWS V14.00,2013-03-05 02:40:00,
2013-03-04 21:45:00,33.3,20.5,29.44,East,90,0.0,1.0,59,0.00,,,0.00,VWS V14.00,2013-03-05 02:45:00,
2013-03-04 21:50:00,33.3,20.5,29.44,West,270,0.0,1.0,59,0.00,,,0.00,VWS V14.00,2013-03-05 02:50:00,
2013-03-04 21:55:00,33.3,20.5,29.44,NW,315,0.0,1.0,59,0.00,,,0.00,VWS V14.00,2013-03-05 02:55:00,